DLH2455 EDDH-LICJ

Flight info

Callsign DLH2455
Flight time 2h 11m
Altitude 39000
Route AMLUH2C AMLUH M852 POVEL Z94 GALMA T703 ARBAX/N0477F400 T108 OSTES/N0475F390 T700 BADIT DCT TIBRO DCT RCH DCT BARPI DCT BAXON DCT IVMEP DCT ALAXI DCT TAGEL DCT LURON
Aircraft A346/H-SDE2E3FGHIJ3J4J5M1RWXY/LB1D1

Departure

Time 2026-04-20 12:50
Airport Hamburg Helmut Schmidt Airport (EDDH)

Arrival

Time 2026-04-20 15:01
Airport Falcone–Borsellino Airport (LICJ)
Time Latitude Longitude Altitude Speed Heading
2026-04-20 12:40 53.63017 10.00328 57 ft 0 kts 123°
2026-04-20 12:48 53.63038 10.00277 49 ft 8 kts 134°
2026-04-20 12:48 53.63084 10.00258 49 ft 6 kts 179°
2026-04-20 12:48 53.63105 10.00257 49 ft 0 kts 175°
2026-04-20 12:48 53.63099 10.00258 49 ft 2 kts 179°
2026-04-20 12:49 53.63058 10.00224 49 ft 13 kts 215°
2026-04-20 12:49 53.62962 10.00110 51 ft 19 kts 216°
2026-04-20 12:49 53.62850 9.99977 53 ft 22 kts 238°
2026-04-20 12:49 53.62841 9.99783 54 ft 18 kts 305°
2026-04-20 12:50 53.62974 9.99654 49 ft 45 kts 332°
2026-04-20 12:50 53.63551 9.99164 52 ft 136 kts 333°
2026-04-20 12:50 53.64578 9.98231 322 ft 186 kts 339°
2026-04-20 12:50 53.65760 9.97262 1344 ft 189 kts 341°
2026-04-20 12:51 53.66953 9.96288 2343 ft 194 kts 340°
2026-04-20 12:51 53.68199 9.95235 2878 ft 206 kts 345°
2026-04-20 12:51 53.69600 9.94688 3489 ft 208 kts
2026-04-20 12:51 53.71058 9.94622 4278 ft 210 kts
2026-04-20 12:52 53.72464 9.95060 5058 ft 204 kts 30°
2026-04-20 12:52 53.73493 9.96634 5850 ft 200 kts 59°
2026-04-20 12:52 53.73926 9.98867 6627 ft 202 kts 78°
2026-04-20 12:52 53.74149 10.01239 7390 ft 206 kts 82°
2026-04-20 12:53 53.74050 10.03667 8152 ft 211 kts 102°
2026-04-20 12:53 53.73434 10.06006 8714 ft 227 kts 115°
2026-04-20 12:53 53.72643 10.08414 9129 ft 247 kts 116°
2026-04-20 12:53 53.71761 10.11029 9671 ft 263 kts 117°
2026-04-20 12:54 53.70843 10.13747 10490 ft 268 kts 117°
2026-04-20 12:54 53.69901 10.16537 11178 ft 280 kts 117°
2026-04-20 12:54 53.68674 10.19247 11636 ft 304 kts 134°
2026-04-20 12:54 53.66829 10.21264 12092 ft 330 kts 154°
2026-04-20 12:55 53.64562 10.22451 12571 ft 351 kts 161°
2026-04-20 12:55 53.62141 10.23541 13032 ft 369 kts 162°
2026-04-20 12:55 53.59597 10.24673 13506 ft 385 kts 162°
2026-04-20 12:55 53.56977 10.25849 14241 ft 392 kts 162°
2026-04-20 12:56 53.55227 10.26639 14775 ft 395 kts 162°
2026-04-20 12:56 53.52559 10.27847 15565 ft 399 kts 162°
2026-04-20 12:56 53.48982 10.29473 16586 ft 405 kts 162°
2026-04-20 12:56 53.46237 10.30724 17349 ft 410 kts 162°
2026-04-20 12:57 53.43467 10.31986 18116 ft 415 kts 162°
2026-04-20 12:57 53.40655 10.33262 18818 ft 420 kts 162°
2026-04-20 12:57 53.38738 10.34127 19264 ft 423 kts 162°
2026-04-20 12:57 53.35884 10.35412 19931 ft 426 kts 162°
2026-04-20 12:58 53.33006 10.36706 20626 ft 430 kts 162°
2026-04-20 12:58 53.30140 10.37990 21322 ft 433 kts 162°
2026-04-20 12:58 53.27220 10.39297 21999 ft 436 kts 162°
2026-04-20 12:58 53.24269 10.40617 22657 ft 440 kts 162°
2026-04-20 12:59 53.21296 10.41943 23329 ft 444 kts 162°
2026-04-20 12:59 53.18295 10.43280 23938 ft 447 kts 163°
2026-04-20 12:59 53.15278 10.44620 24490 ft 451 kts 162°
2026-04-20 12:59 53.12237 10.45971 25033 ft 454 kts 162°
2026-04-20 13:00 53.09172 10.47334 25598 ft 457 kts 162°
2026-04-20 13:00 53.06132 10.48685 26129 ft 460 kts 162°
2026-04-20 13:00 53.03029 10.50062 26658 ft 463 kts 162°
2026-04-20 13:00 52.99898 10.51448 27184 ft 467 kts 162°
2026-04-20 13:01 52.96749 10.52840 27702 ft 470 kts 162°
2026-04-20 13:01 52.93576 10.54239 28230 ft 473 kts 162°
2026-04-20 13:01 52.90390 10.55640 28920 ft 471 kts 162°
2026-04-20 13:01 52.87229 10.57026 29743 ft 468 kts 162°
2026-04-20 13:02 52.84091 10.58405 30484 ft 465 kts 162°
2026-04-20 13:02 52.80977 10.59798 31081 ft 464 kts 162°
2026-04-20 13:02 52.77851 10.61204 31588 ft 466 kts 162°
2026-04-20 13:02 52.74714 10.62611 32075 ft 467 kts 163°
2026-04-20 13:03 52.71577 10.64011 32557 ft 468 kts 163°
2026-04-20 13:03 52.68425 10.65412 33068 ft 469 kts 164°
2026-04-20 13:03 52.65307 10.66794 33558 ft 471 kts 164°
2026-04-20 13:03 52.62133 10.68198 34045 ft 472 kts 165°
2026-04-20 13:04 52.58955 10.69601 34438 ft 474 kts 165°
2026-04-20 13:04 52.55763 10.71004 34845 ft 474 kts 165°
2026-04-20 13:04 52.52572 10.72405 35265 ft 475 kts 165°
2026-04-20 13:04 52.49381 10.73805 35678 ft 475 kts 165°
2026-04-20 13:05 52.46187 10.75205 36056 ft 476 kts 165°
2026-04-20 13:05 52.42984 10.76609 36390 ft 476 kts 165°
2026-04-20 13:05 52.39772 10.77977 36716 ft 477 kts 167°
2026-04-20 13:05 52.36522 10.79098 37052 ft 477 kts 170°
2026-04-20 13:06 52.33240 10.79915 37375 ft 477 kts 174°
2026-04-20 13:06 52.29932 10.80431 37689 ft 478 kts 176°
2026-04-20 13:06 52.26606 10.80872 37938 ft 480 kts 176°
2026-04-20 13:06 52.23314 10.81322 38171 ft 482 kts 175°
2026-04-20 13:07 52.19974 10.81987 38396 ft 484 kts 172°
2026-04-20 13:07 52.16657 10.82996 38608 ft 487 kts 168°
2026-04-20 13:07 52.13367 10.84359 38825 ft 489 kts 165°
2026-04-20 13:07 52.10123 10.86074 38986 ft 491 kts 161°
2026-04-20 13:08 52.06945 10.88131 39130 ft 493 kts 157°
2026-04-20 13:08 52.00813 10.93157 39126 ft 494 kts 152°
2026-04-20 13:09 51.94745 10.98427 39125 ft 494 kts 153°
2026-04-20 13:09 51.88676 11.03651 39124 ft 494 kts 153°
2026-04-20 13:10 51.82595 11.08867 39117 ft 494 kts 153°
2026-04-20 13:10 51.76511 11.14070 39120 ft 495 kts 153°
2026-04-20 13:11 51.70417 11.19260 39118 ft 495 kts 153°
2026-04-20 13:11 51.64364 11.24397 39120 ft 495 kts 153°
2026-04-20 13:12 51.58226 11.29599 39116 ft 495 kts 153°
2026-04-20 13:12 51.52096 11.34780 39115 ft 504 kts 153°
2026-04-20 13:13 51.45871 11.40019 39116 ft 505 kts 153°
2026-04-20 13:13 51.39635 11.45251 39105 ft 506 kts 153°
2026-04-20 13:14 51.33391 11.50463 39108 ft 506 kts 153°
2026-04-20 13:14 51.27134 11.55657 39108 ft 506 kts 153°
2026-04-20 13:15 51.20905 11.60762 39105 ft 506 kts 156°
2026-04-20 13:15 51.14364 11.64885 39108 ft 505 kts 164°
2026-04-20 13:16 51.07549 11.67488 39106 ft 503 kts 172°
2026-04-20 13:16 51.00597 11.68547 39105 ft 501 kts 180°
2026-04-20 13:17 50.93630 11.68893 39102 ft 501 kts 180°
2026-04-20 13:17 50.86656 11.69266 39104 ft 501 kts 180°
2026-04-20 13:18 50.79686 11.69661 39104 ft 501 kts 179°
2026-04-20 13:18 50.72733 11.70675 39106 ft 503 kts 173°
2026-04-20 13:19 50.65857 11.72877 39100 ft 505 kts 167°
2026-04-20 13:19 50.59183 11.76152 39103 ft 507 kts 163°
2026-04-20 13:20 50.52478 11.79628 39098 ft 507 kts 163°
2026-04-20 13:20 50.45804 11.83234 39096 ft 508 kts 160°
2026-04-20 13:21 50.39292 11.87597 39089 ft 509 kts 158°
2026-04-20 13:21 50.32786 11.91994 39089 ft 509 kts 158°
2026-04-20 13:22 50.26270 11.96380 39088 ft 509 kts 158°
2026-04-20 13:22 50.19752 12.00767 39091 ft 510 kts 158°
2026-04-20 13:23 50.13237 12.05142 39092 ft 510 kts 158°
2026-04-20 13:23 50.06756 12.09477 39095 ft 510 kts 158°
2026-04-20 13:24 50.00225 12.13835 39096 ft 510 kts 159°
2026-04-20 13:24 49.93686 12.18179 39086 ft 510 kts 159°
2026-04-20 13:25 49.87142 12.22509 39082 ft 511 kts 159°
2026-04-20 13:25 49.80607 12.26824 39078 ft 510 kts 159°
2026-04-20 13:26 49.74174 12.31518 39077 ft 512 kts 153°
2026-04-20 13:26 49.68090 12.37260 39078 ft 513 kts 147°
2026-04-20 13:27 49.62392 12.43824 39077 ft 514 kts 144°
2026-04-20 13:27 49.56682 12.50500 39078 ft 514 kts 144°
2026-04-20 13:28 49.50967 12.57134 39077 ft 514 kts 144°
2026-04-20 13:28 49.45260 12.63780 39077 ft 514 kts 143°
2026-04-20 13:29 49.39883 12.71061 39075 ft 515 kts 137°
2026-04-20 13:29 49.34930 12.78946 39076 ft 516 kts 131°
2026-04-20 13:30 49.30316 12.87431 39073 ft 517 kts 130°
2026-04-20 13:30 49.25181 12.95060 39061 ft 514 kts 150°
2026-04-20 13:30 49.21976 12.97410 39066 ft 509 kts 164°
2026-04-20 13:31 49.18544 12.98556 39057 ft 503 kts 179°
2026-04-20 13:31 49.15068 12.98436 39075 ft 497 kts 191°
2026-04-20 13:31 49.11707 12.97331 39072 ft 491 kts 202°
2026-04-20 13:32 49.05515 12.93098 39081 ft 486 kts 210°
2026-04-20 13:32 48.99484 12.88590 39073 ft 486 kts 210°
2026-04-20 13:33 48.93369 12.84146 39073 ft 486 kts 209°
2026-04-20 13:33 48.87249 12.79758 39073 ft 485 kts 209°
2026-04-20 13:34 48.81166 12.75404 39075 ft 485 kts 209°
2026-04-20 13:34 48.74805 12.71841 39069 ft 491 kts 199°
2026-04-20 13:35 48.68036 12.70127 39067 ft 497 kts 188°
2026-04-20 13:35 48.61089 12.70299 39069 ft 502 kts 178°
2026-04-20 13:36 48.54193 12.71808 39067 ft 503 kts 175°
2026-04-20 13:36 48.47271 12.73336 39072 ft 502 kts 176°
2026-04-20 13:37 48.40343 12.74913 39067 ft 503 kts 174°
2026-04-20 13:37 48.33492 12.77244 39069 ft 505 kts 170°
2026-04-20 13:38 48.26711 12.79707 39066 ft 505 kts 171°
2026-04-20 13:38 48.19874 12.82179 39068 ft 504 kts 171°
2026-04-20 13:39 48.13046 12.84610 39069 ft 504 kts 171°
2026-04-20 13:39 48.06203 12.86932 39076 ft 504 kts 172°
2026-04-20 13:40 47.99357 12.89240 39080 ft 504 kts 172°
2026-04-20 13:40 47.92509 12.91549 39085 ft 504 kts 172°
2026-04-20 13:41 47.85717 12.93837 39084 ft 504 kts 172°
2026-04-20 13:41 47.78874 12.96137 39083 ft 504 kts 172°
2026-04-20 13:42 47.72027 12.98432 39083 ft 504 kts 172°
2026-04-20 13:42 47.61751 13.01864 39075 ft 504 kts 172°
2026-04-20 13:43 47.54909 13.04142 39068 ft 504 kts 172°
2026-04-20 13:43 47.48088 13.06406 39071 ft 505 kts 172°
2026-04-20 13:44 47.41230 13.08678 39059 ft 505 kts 172°
2026-04-20 13:44 47.34370 13.10942 39066 ft 505 kts 172°
2026-04-20 13:45 47.27503 13.13202 39039 ft 506 kts 172°
2026-04-20 13:45 47.20607 13.15467 39042 ft 507 kts 172°
2026-04-20 13:46 47.14874 13.17344 39030 ft 508 kts 172°
2026-04-20 13:46 47.06842 13.19966 39007 ft 508 kts 172°
2026-04-20 13:47 47.01101 13.21837 38997 ft 509 kts 172°
2026-04-20 13:47 46.94197 13.24084 38982 ft 508 kts 172°
2026-04-20 13:48 46.87287 13.26325 38975 ft 509 kts 172°
2026-04-20 13:48 46.80371 13.28566 38970 ft 510 kts 172°
2026-04-20 13:49 46.73435 13.30806 38959 ft 511 kts 172°
2026-04-20 13:49 46.66479 13.33042 38957 ft 513 kts 172°
2026-04-20 13:50 46.59504 13.35279 38960 ft 514 kts 172°
2026-04-20 13:50 46.52503 13.37520 38961 ft 515 kts 172°
2026-04-20 13:51 46.45483 13.39760 38965 ft 516 kts 172°
2026-04-20 13:51 46.38470 13.41993 38970 ft 516 kts 172°
2026-04-20 13:52 46.31460 13.44218 38973 ft 515 kts 172°
2026-04-20 13:52 46.24492 13.46279 38964 ft 512 kts 175°
2026-04-20 13:53 46.17443 13.47352 38969 ft 506 kts 182°
2026-04-20 13:53 46.10418 13.47512 38958 ft 504 kts 184°
2026-04-20 13:54 46.03404 13.47625 38956 ft 504 kts 184°
2026-04-20 13:54 45.96391 13.47756 38954 ft 504 kts 184°
2026-04-20 13:55 45.89383 13.47889 38952 ft 503 kts 184°
2026-04-20 13:55 45.82369 13.48206 38949 ft 505 kts 180°
2026-04-20 13:56 45.75363 13.49346 38952 ft 507 kts 178°
2026-04-20 13:56 45.68353 13.50575 38951 ft 507 kts 178°
2026-04-20 13:57 45.61339 13.51741 38951 ft 505 kts 180°
2026-04-20 13:57 45.54348 13.52081 38952 ft 500 kts 186°
2026-04-20 13:58 45.47440 13.51712 38951 ft 500 kts 187°
2026-04-20 13:58 45.40493 13.51342 38952 ft 499 kts 187°
2026-04-20 13:59 45.33550 13.50980 38956 ft 499 kts 187°
2026-04-20 13:59 45.26617 13.50622 38960 ft 498 kts 187°
2026-04-20 14:00 45.19685 13.50264 38966 ft 498 kts 187°
2026-04-20 14:00 45.12758 13.49908 38973 ft 498 kts 187°
2026-04-20 14:01 45.05837 13.49553 38978 ft 497 kts 187°
2026-04-20 14:01 44.98926 13.49199 38978 ft 497 kts 187°
2026-04-20 14:02 44.92015 13.48846 38974 ft 497 kts 187°
2026-04-20 14:02 44.85103 13.48493 38975 ft 496 kts 187°
2026-04-20 14:03 44.78252 13.48145 38973 ft 496 kts 187°
2026-04-20 14:03 44.71361 13.47795 38973 ft 495 kts 187°
2026-04-20 14:04 44.64471 13.47446 38971 ft 495 kts 187°
2026-04-20 14:04 44.57590 13.47097 38965 ft 495 kts 187°
2026-04-20 14:05 44.50702 13.46748 38963 ft 495 kts 187°
2026-04-20 14:05 44.43822 13.46400 38958 ft 495 kts 187°
2026-04-20 14:06 44.36957 13.45952 38957 ft 493 kts 189°
2026-04-20 14:06 44.30111 13.45353 38957 ft 493 kts 189°
2026-04-20 14:07 44.23267 13.44759 38950 ft 492 kts 189°
2026-04-20 14:07 44.16433 13.44178 38945 ft 492 kts 189°
2026-04-20 14:08 44.09593 13.43603 38941 ft 492 kts 189°
2026-04-20 14:08 44.02802 13.43035 38951 ft 491 kts 189°
2026-04-20 14:09 43.95977 13.42465 38947 ft 491 kts 189°
2026-04-20 14:09 43.89152 13.41896 38940 ft 491 kts 189°
2026-04-20 14:10 43.82333 13.41329 38931 ft 491 kts 189°
2026-04-20 14:10 43.75509 13.40762 38928 ft 491 kts 189°
2026-04-20 14:11 43.68690 13.40197 38922 ft 491 kts 189°
2026-04-20 14:11 43.61903 13.39636 38923 ft 492 kts 189°
2026-04-20 14:12 43.55062 13.39072 38920 ft 493 kts 189°
2026-04-20 14:12 43.48212 13.38508 38925 ft 492 kts 189°
2026-04-20 14:13 43.41365 13.37945 38933 ft 493 kts 189°
2026-04-20 14:13 43.34515 13.37381 38941 ft 493 kts 189°
2026-04-20 14:14 43.27710 13.36841 38947 ft 493 kts 188°
2026-04-20 14:14 43.20820 13.36714 38958 ft 495 kts 186°
2026-04-20 14:15 43.13932 13.36622 38957 ft 494 kts 186°
2026-04-20 14:15 43.07047 13.36529 38962 ft 494 kts 186°
2026-04-20 14:16 43.00206 13.36437 38969 ft 494 kts 186°
2026-04-20 14:16 42.93333 13.36344 38967 ft 494 kts 186°
2026-04-20 14:17 42.86454 13.36251 38973 ft 494 kts 186°
2026-04-20 14:17 42.79586 13.36160 38986 ft 492 kts 186°
2026-04-20 14:18 42.72734 13.36069 38982 ft 493 kts 186°
2026-04-20 14:18 42.65880 13.35977 38982 ft 492 kts 186°
2026-04-20 14:19 42.59024 13.35885 38992 ft 493 kts 186°
2026-04-20 14:19 42.52162 13.35794 38993 ft 493 kts 186°
2026-04-20 14:20 42.45346 13.35704 38996 ft 493 kts 186°
2026-04-20 14:20 42.38479 13.35612 38991 ft 493 kts 186°
2026-04-20 14:21 42.31605 13.35521 38999 ft 493 kts 186°
2026-04-20 14:21 42.24732 13.35430 38994 ft 494 kts 186°
2026-04-20 14:22 42.17900 13.35341 39000 ft 494 kts 186°
2026-04-20 14:22 42.11035 13.35253 39000 ft 494 kts 186°
2026-04-20 14:23 42.04153 13.35164 39003 ft 494 kts 186°
2026-04-20 14:23 41.97275 13.35075 39004 ft 493 kts 186°
2026-04-20 14:24 41.90416 13.34983 39022 ft 492 kts 186°
2026-04-20 14:24 41.83593 13.34891 39018 ft 493 kts 186°
2026-04-20 14:25 41.76720 13.34800 39032 ft 494 kts 186°
2026-04-20 14:25 41.69851 13.34687 39041 ft 493 kts 187°
2026-04-20 14:26 41.62974 13.34506 39030 ft 494 kts 187°
2026-04-20 14:26 41.56101 13.34324 39035 ft 494 kts 187°
2026-04-20 14:27 41.49268 13.34146 39023 ft 494 kts 187°
2026-04-20 14:27 41.42386 13.33967 39022 ft 495 kts 187°
2026-04-20 14:28 41.35501 13.33790 39023 ft 495 kts 187°
2026-04-20 14:28 41.28613 13.33613 39020 ft 495 kts 187°
2026-04-20 14:29 41.21720 13.33437 39028 ft 495 kts 187°
2026-04-20 14:29 41.14825 13.33260 39024 ft 495 kts 187°
2026-04-20 14:30 41.07929 13.33084 39026 ft 495 kts 187°
2026-04-20 14:30 41.01037 13.32908 39029 ft 495 kts 187°
2026-04-20 14:31 40.94147 13.32733 39027 ft 495 kts 187°
2026-04-20 14:31 40.87290 13.32558 39024 ft 496 kts 187°
2026-04-20 14:32 40.80384 13.32383 39027 ft 496 kts 187°
2026-04-20 14:32 40.73480 13.32208 39024 ft 495 kts 187°
2026-04-20 14:33 40.66582 13.32033 39027 ft 495 kts 187°
2026-04-20 14:33 40.59721 13.31859 39027 ft 495 kts 187°
2026-04-20 14:34 40.52830 13.31685 39032 ft 495 kts 186°
2026-04-20 14:34 40.45942 13.31510 39028 ft 495 kts 186°
2026-04-20 14:35 40.39057 13.31334 39035 ft 493 kts 186°
2026-04-20 14:35 40.32269 13.31166 39006 ft 486 kts 187°
2026-04-20 14:36 40.28905 13.30960 38774 ft 481 kts 190°
2026-04-20 14:36 40.26702 13.30695 38608 ft 478 kts 192°
2026-04-20 14:36 40.23401 13.30240 38321 ft 475 kts 192°
2026-04-20 14:36 40.20121 13.29786 38020 ft 472 kts 192°
2026-04-20 14:37 40.16861 13.29334 37742 ft 470 kts 192°
2026-04-20 14:37 40.13613 13.28884 37429 ft 469 kts 192°
2026-04-20 14:37 40.10364 13.28433 37083 ft 469 kts 192°
2026-04-20 14:37 40.07113 13.27984 36655 ft 469 kts 192°
2026-04-20 14:38 40.03864 13.27536 36120 ft 470 kts 191°
2026-04-20 14:38 40.00604 13.27087 35583 ft 470 kts 191°
2026-04-20 14:38 39.97354 13.26640 35034 ft 470 kts 191°
2026-04-20 14:38 39.94098 13.26193 34491 ft 470 kts 191°
2026-04-20 14:39 39.90845 13.25747 33905 ft 470 kts 191°
2026-04-20 14:39 39.87590 13.25301 33231 ft 471 kts 191°
2026-04-20 14:39 39.84333 13.24855 32597 ft 471 kts 191°
2026-04-20 14:39 39.81116 13.24415 31958 ft 471 kts 191°
2026-04-20 14:40 39.77840 13.23967 31310 ft 471 kts 191°
2026-04-20 14:40 39.74574 13.23520 30656 ft 472 kts 191°
2026-04-20 14:40 39.71299 13.23073 29964 ft 474 kts 191°
2026-04-20 14:40 39.68010 13.22625 29206 ft 475 kts 190°
2026-04-20 14:41 39.64715 13.22178 28489 ft 475 kts 190°
2026-04-20 14:41 39.61433 13.21733 27781 ft 475 kts 190°
2026-04-20 14:41 39.58147 13.21288 27184 ft 475 kts 190°
2026-04-20 14:41 39.54857 13.20842 26758 ft 475 kts 190°
2026-04-20 14:42 39.51582 13.20399 26313 ft 471 kts 190°
2026-04-20 14:42 39.48332 13.19961 25860 ft 467 kts 190°
2026-04-20 14:42 39.45154 13.19532 25405 ft 464 kts 190°
2026-04-20 14:42 39.41956 13.19101 24942 ft 460 kts 190°
2026-04-20 14:43 39.38781 13.18672 24498 ft 456 kts 190°
2026-04-20 14:43 39.35641 13.18248 24037 ft 452 kts 190°
2026-04-20 14:43 39.32518 13.17826 23566 ft 448 kts 190°
2026-04-20 14:43 39.29427 13.17409 23058 ft 444 kts 190°
2026-04-20 14:44 39.26363 13.16997 22581 ft 439 kts 190°
2026-04-20 14:44 39.23345 13.16527 22096 ft 433 kts 193°
2026-04-20 14:44 39.20430 13.15839 21540 ft 430 kts 195°
2026-04-20 14:44 39.17502 13.15072 20929 ft 428 kts 195°
2026-04-20 14:45 39.14578 13.14301 20307 ft 428 kts 195°
2026-04-20 14:45 39.11665 13.13547 19666 ft 427 kts 195°
2026-04-20 14:45 39.08748 13.12803 19040 ft 426 kts 195°
2026-04-20 14:45 39.05844 13.12072 18407 ft 425 kts 195°
2026-04-20 14:46 39.02934 13.11345 17693 ft 423 kts 194°
2026-04-20 14:46 39.00053 13.10628 17021 ft 420 kts 194°
2026-04-20 14:46 38.97228 13.09928 16426 ft 416 kts 194°
2026-04-20 14:46 38.94405 13.09230 15919 ft 410 kts 194°
2026-04-20 14:47 38.91621 13.08543 15436 ft 404 kts 194°
2026-04-20 14:47 38.88877 13.07866 14980 ft 399 kts 194°
2026-04-20 14:47 38.86181 13.07157 14503 ft 392 kts 197°
2026-04-20 14:48 38.81042 13.05061 12345 ft 382 kts 201°
2026-04-20 14:48 38.78572 13.03983 11693 ft 368 kts 201°
2026-04-20 14:48 38.76158 13.02949 11373 ft 364 kts 200°
2026-04-20 14:48 38.73751 13.01932 10955 ft 361 kts 200°
2026-04-20 14:49 38.71431 13.00964 10806 ft 348 kts 200°
2026-04-20 14:49 38.69166 13.00028 10652 ft 335 kts 200°
2026-04-20 14:49 38.66988 12.99130 10512 ft 323 kts 199°
2026-04-20 14:49 38.64889 12.98267 10398 ft 311 kts 199°
2026-04-20 14:50 38.62863 12.97434 10283 ft 299 kts 199°
2026-04-20 14:50 38.60916 12.96636 10181 ft 288 kts 199°
2026-04-20 14:50 38.59043 12.95868 10093 ft 279 kts 199°
2026-04-20 14:50 38.57194 12.95109 9891 ft 277 kts 199°
2026-04-20 14:51 38.55354 12.94354 9544 ft 277 kts 199°
2026-04-20 14:51 38.53523 12.93604 9237 ft 276 kts 199°
2026-04-20 14:51 38.51700 12.92858 8944 ft 274 kts 199°
2026-04-20 14:51 38.49891 12.92118 8655 ft 272 kts 199°
2026-04-20 14:52 38.48117 12.91393 8370 ft 270 kts 199°
2026-04-20 14:52 38.46332 12.90664 8088 ft 269 kts 199°
2026-04-20 14:52 38.44556 12.89938 7806 ft 267 kts 199°
2026-04-20 14:52 38.42796 12.89219 7529 ft 265 kts 198°
2026-04-20 14:53 38.41039 12.88502 7256 ft 264 kts 198°
2026-04-20 14:53 38.39292 12.87790 6975 ft 262 kts 198°
2026-04-20 14:53 38.37553 12.87081 6690 ft 261 kts 198°
2026-04-20 14:53 38.35839 12.86383 6486 ft 256 kts 198°
2026-04-20 14:54 38.34156 12.85698 6247 ft 252 kts 197°
2026-04-20 14:54 38.32521 12.85034 5997 ft 248 kts 197°
2026-04-20 14:54 38.30890 12.84372 5755 ft 244 kts 197°
2026-04-20 14:54 38.29289 12.83722 5561 ft 238 kts 197°
2026-04-20 14:55 38.27740 12.83093 5479 ft 231 kts 197°
2026-04-20 14:55 38.26210 12.82473 5425 ft 231 kts 197°
2026-04-20 14:55 38.24641 12.82111 5325 ft 231 kts 174°
2026-04-20 14:55 38.23109 12.82689 5130 ft 230 kts 158°
2026-04-20 14:56 38.21652 12.83497 4916 ft 226 kts 158°
2026-04-20 14:56 38.20220 12.84292 4686 ft 223 kts 158°
2026-04-20 14:56 38.18809 12.85067 4460 ft 219 kts 158°
2026-04-20 14:56 38.17416 12.85826 4209 ft 217 kts 158°
2026-04-20 14:57 38.16027 12.86579 3943 ft 216 kts 158°
2026-04-20 14:57 38.14646 12.87327 3708 ft 214 kts 158°
2026-04-20 14:57 38.13288 12.88062 3517 ft 210 kts 158°
2026-04-20 14:57 38.11971 12.88821 3323 ft 206 kts 147°
2026-04-20 14:58 38.11142 12.90228 3075 ft 207 kts 104°
2026-04-20 14:58 38.11329 12.92013 2883 ft 209 kts 68°
2026-04-20 14:58 38.12018 12.93647 2632 ft 209 kts 60°
2026-04-20 14:58 38.12728 12.95249 2371 ft 208 kts 62°
2026-04-20 14:59 38.13390 12.96879 2122 ft 207 kts 64°
2026-04-20 14:59 38.14004 12.98531 1840 ft 206 kts 66°
2026-04-20 14:59 38.14587 13.00186 1573 ft 204 kts 66°
2026-04-20 14:59 38.15151 13.01832 1331 ft 202 kts 66°
2026-04-20 15:00 38.15698 13.03447 1055 ft 194 kts 66°
2026-04-20 15:00 38.16208 13.05006 772 ft 185 kts 66°
2026-04-20 15:00 38.16699 13.06469 507 ft 174 kts 65°
2026-04-20 15:00 38.17157 13.07826 298 ft 160 kts 65°
2026-04-20 15:01 38.17577 13.09077 89 ft 145 kts 66°
2026-04-20 15:01 38.17881 13.09981 71 ft 74 kts 67°
2026-04-20 15:01 38.18051 13.10497 68 ft 52 kts 67°
2026-04-20 15:01 38.18161 13.10710 82 ft 9 kts 331°
2026-04-20 15:02 38.18179 13.10612 68 ft 14 kts 281°
2026-04-20 15:02 38.18196 13.10461 71 ft 19 kts 278°
2026-04-20 15:02 38.18293 13.10339 71 ft 23 kts 335°
2026-04-20 15:02 38.18405 13.10317 68 ft 12 kts 41°
2026-04-20 15:03 38.18427 13.10371 66 ft 0 kts 66°
2026-04-20 15:03 38.18427 13.10372 66 ft 0 kts 66°